Regional Weather Roundup
Issued by NWS Cleveland, OH

Home | Current Version | Previous Version | Text Only | Print | Product List | Glossary Off
Versions: 1 2 3 4 5 6 7 8 9 10 11 12 13 14 15 16 17 18 19 20 21 22 23 24 25 26 27 28 29 30 31 32 33 34 35 36 37 38 39 40 41 42 43 44 45 46 47 48 49 50

026
ASUS41 KCLE 211612
RWRCLE
OHIO REGIONAL WEATHER ROUNDUP
NATIONAL WEATHER SERVICE WILMINGTON, OH
1200 PM EDT SAT APR 21 2018

NOTE: "FAIR" INDICATES FEW OR NO CLOUDS BELOW 12,000 FEET WITH NO
SIGNIFICANT WEATHER AND/OR OBSTRUCTIONS TO VISIBILITY.

OHZ001>008-015>018-024>027-034-035-043-044-211700-
   NORTHWEST OHIO

CITY           SKY/WX    TMP DP  RH WIND       PRES   REMARKS
DEFIANCE       FAIR      50  27  40 VRB5      30.47S
FINDLAY        FAIR      51  21  30 NE8       30.46R
TOLEDO EXPRESS FAIR      51  27  39 VRB3      30.48R
TOLEDO EXEC    FAIR      50  26  39 E5        30.49S
LIMA           FAIR      51  24  34 E10       30.45S
$$

OHZ009>014-019>023-028>033-038-089-211700-
   NORTHEAST OHIO

CITY           SKY/WX    TMP DP  RH WIND       PRES   REMARKS
CLE-HOPKINS    CLOUDY    50  16  25 CALM      30.49F
CLE-LAKEFRONT  FAIR      43  31  62 N8        30.47F
CUY CO. ARPT   MOSUNNY   50  28  43 N9        30.47F
LORAIN-ELYRIA  FAIR      49  15  25 N6        30.47F
ASHTABULA      FAIR      47  24  40 CALM      30.47F
AKRON-CANTON   PTSUNNY   49  19  30 SE5       30.44F
WOOSTER        FAIR      48  20  32 NE3       30.45F
MANSFIELD      FAIR      50  16  25 E7        30.45S
YOUNGSTOWN     PTSUNNY   50  25  37 N5        30.44F
$$

OHZ042-051>053-060>062-070>072-077>081-211700-
  SOUTHWEST OHIO

CITY           SKY/WX    TMP DP  RH WIND       PRES   REMARKS
CINC-COVINGTON PTSUNNY   56  22  26 E7        30.40F
CINC-LUNKEN    FAIR      57  25  29 NE6       30.42F
HAMILTON       FAIR      55  19  24 VRB7      30.43F
DAYTON         PTSUNNY   50  21  32 E8        30.43F
WRIGHT-PAT AFB CLOUDY    52  20  28 E8        30.43F
DAYTON GENERAL FAIR      55  22  27 E8        30.42F
WILMINGTON     FAIR      55  26  32 E9        30.41F
$$

OHZ036-037-039>041-045>050-054>059-063>069-073>076-082>088-211700-
  CENTRAL AND SOUTHEAST OHIO

CITY           SKY/WX    TMP DP  RH WIND       PRES   REMARKS
COLUMBUS       PTSUNNY   53  19  26 E8        30.44F
OSU AIRPORT    FAIR      51  20  29 SE3       30.44F
BOLTON FIELD   SUNNY     52  21  30 SE5       30.44F
RICKENBACK AFB FAIR      51  23  33 E3        30.44F
NEWARK         FAIR      51  24  34 VRB5      30.43F
MARION         FAIR      50  15  24 NE8       30.45F
LANCASTER      FAIR      52  28  39 E5        30.44F
ZANESVILLE     FAIR      52  24  33 E5        30.43F
NEW PHILLY     FAIR      49  25  39 CALM      30.45F
$$




USA.gov is the U.S. government's official web portal to all federal, state and local government web resources and services.